Temp
5 5 5 4 5 5 5 4 2 7 6 3 5 6 7 7 8 8 8 9 10 10 11 11 10 11 12 12 12 11 11 10 11 11 12 11 11 10 9 7 7 5 4 9
5 5 5 4 4 5 4 4 3 6 6 3 5 7 8 8 9 9 9 11 11 11 11 11 11 11 11 12 12 12 11 9 10 11 11 11 11 10 10 8 7 4 7 11
5 4 4 4 4 5 5 4 4 3 3 4 6 7 8 9 10 9 10 11 11 11 10 10 11 11 11 12 13 13 12 9 10 8 10 9 9 10 9 9 7 7 6 10
5 4 4 4 4 5 6 5 5 5 5 7 7 7 7 9 11 10 10 11 11 11 11 11 10 11 11 11 12 11 11 10 11 11 11 11 10 10 9 8 9 9 10 8
4 4 4 4 4 5 5 5 5 5 6 7 8 9 10 11 11 10 10 10 10 11 11 11 11 10 11 12 11 11 9 9 10 10 10 10 10 10 10 10 10 9 10 10
4 4 4 4 4 4 3 5 5 5 7 8 7 8 10 10 11 11 11 11 10 10 9 10 10 9 9 10 10 9 10 9 9 7 9 10 9 9 9 9 9 10 9 11
4 4 4 4 4 4 4 4 4 5 7 6 7 7 9 10 11 11 10 10 10 11 11 11 11 10 9 9 10 10 10 10 9 8 9 9 12 11 11 10 11 10 12 13
4 4 4 4 4 4 4 4 4 5 6 6 7 7 9 10 10 10 9 10 10 8 10 10 11 11 11 10 10 10 11 9 9 7 7 10 13 11 11 12 14 12 12 13
4 4 4 4 4 4 4 4 4 4 5 6 6 7 7 7 8 9 10 10 9 9 8 9 11 9 11 10 10 10 9 8 7 6 8 9 12 12 12 13 12 14 13 14
4 4 4 4 4 4 4 4 3 3 5 6 6 7 8 8 8 8 8 8 9 9 7 7 8 9 10 9 9 10 9 9 9 8 7 9 10 11 11 12 12 13 13 12
4 4 4 4 4 4 4 3 4 3 4 5 5 6 7 8 8 8 8 8 8 8 7 7 8 9 8 8 8 9 9 9 9 10 9 8 11 12 13 13 14 13 12 11
3 4 4 4 4 4 4 3 4 3 3 4 5 5 5 6 8 8 8 8 8 7 7 6 7 8 7 8 9 8 8 8 8 8 8 10 11 11 12 12 12 12 10 10
3 3 4 4 4 4 4 4 3 3 1 3 5 5 7 7 6 7 8 8 9 8 6 6 7 9 6 9 10 8 8 8 9 10 11 9 10 9 9 10 10 11 9 9
3 3 4 3 3 3 3 3 3 3 2 4 5 8 8 8 8 7 7 8 8 8 8 8 9 10 7 8 8 8 8 8 9 8 9 10 11 11 10 12 11 10 9 8
3 3 3 3 3 3 3 3 3 3 3 4 5 5 8 8 8 8 8 8 8 8 9 9 9 8 9 6 7 6 7 8 8 9 11 11 10 11 11 11 11 10 9 8
3 3 3 3 3 3 2 3 3 3 3 3 5 7 7 7 8 8 8 8 8 9 9 10 9 9 9 8 9 8 9 8 8 9 8 8 8 8 10 10 9 8 7 7
3 3 3 2 3 3 3 2 3 2 3 3 5 7 8 8 8 8 8 8 8 8 9 9 9 9 10 9 9 8 7 7 7 7 8 10 8 8 5 6 6 6 5 4
3 3 3 3 5 3 3 3 3 2 2 3 5 7 7 8 8 8 7 8 7 8 8 8 9 9 9 9 8 6 6 5 6 6 6 5 5 5 6 5 5 6 5 4
2 2 4 4 3 3 3 3 2 2 3 5 6 8 8 7 8 8 7 7 8 7 8 9 9 9 9 7 6 6 4 4 5 4 5 6 6 7 6 6 5 5 4 3
3 4 4 4 3 3 3 4 3 3 4 4 6 8 8 8 8 7 8 7 8 7 8 8 8 8 5 5 4 4 3 4 4 4 4 4 4 5 5 5 4 3 4 3
3 3 3 3 3 3 4 4 5 5 6 6 7 6 8 7 8 8 7 7 6 8 8 8 8 8 5 4 3 2 2 3 3 4 4 4 4 3 4 5 5 3 3 2
2 1 1 1 4 4 4 5 6 6 7 7 8 8 7 7 7 7 7 7 6 7 6 7 8 5 3 2 1 1 1 2 2 3 3 4 4 3 4 5 5 4 4 3
2 2 2 3 4 5 7 7 7 7 6 5 5 6 6 6 6 6 6 7 8 6 7 8 6 3 2 2 1 1 0 1 1 2 2 3 3 4 4 5 4 4 3 2
3 3 5 5 6 6 6 5 4 4 4 5 5 6 6 6 6 7 7 7 6 6 6 6 4 2 2 1 1 1 1 1 1 1 1 2 2 3 3 3 3 3 2 1
3 3 5 5 4 4 3 3 4 4 4 5 5 4 5 6 6 6 6 7 6 7 7 4 2 1 0 0 -0 -0 0 -0 -0 -0 -0 -0 -0 1 2 1 2 2 1 0
2 2 3 2 4 4 3 3 4 3 4 3 3 5 5 6 6 7 7 7 5 5 2 -1 -1 0 -0 -1 -1 -1 -1 -1 -1 -1 -1 -0 -1 -0 -0 -0 0 1 1 0
2 2 2 2 2 3 3 3 4 3 4 3 5 5 6 4 6 6 6 7 4 2 -3 -3 -2 -1 -2 -2 -2 -1 -2 -2 -2 -2 -2 -2 -1 -0 -0 -1 -1 -1 -0 -1
Height
795 789 783 777 769 761 755 754 762 743 742 751 744 740 730 729 721 718 717 716 711 715 716 721 724 727 722 721 721 733 737 750 753 758 753 754 757 765 771 791 799 812 819 778
795 789 783 777 771 763 760 760 757 744 743 758 746 736 731 729 722 719 714 709 709 711 717 721 724 727 727 723 724 732 736 760 759 761 758 757 757 762 767 777 789 813 796 766
795 790 784 778 772 765 761 761 761 753 749 750 747 740 733 727 720 719 716 713 712 716 724 724 726 729 729 726 726 726 731 752 756 769 759 760 765 761 766 772 793 790 791 763
795 791 785 780 773 765 763 764 766 762 756 742 742 739 738 729 717 718 716 715 717 717 724 725 731 730 730 730 729 733 737 753 749 749 749 752 755 758 764 772 770 774 761 770
795 792 786 782 775 768 767 769 768 763 756 748 738 731 727 722 721 723 724 725 723 719 722 724 728 729 732 732 737 739 745 759 752 755 753 754 755 754 758 760 761 764 760 755
795 792 788 784 779 775 774 773 770 767 754 749 745 740 732 729 723 724 725 725 725 729 733 728 728 730 734 734 740 746 747 756 760 777 759 756 761 752 753 756 755 751 762 740
795 793 790 786 783 780 779 777 774 768 759 756 753 746 735 732 728 727 730 728 729 733 730 730 728 732 737 739 741 740 747 749 759 770 762 767 738 736 738 743 739 744 737 732
793 792 790 788 785 782 779 778 776 772 765 761 753 750 742 734 733 734 735 734 734 733 731 737 736 740 738 743 746 744 739 752 763 774 774 753 729 736 738 734 727 730 734 728
792 791 789 787 786 783 780 778 778 776 771 763 762 754 751 748 744 740 736 734 733 733 742 742 740 753 741 747 748 748 750 755 768 779 769 760 734 731 730 730 736 724 727 724
790 788 787 786 785 783 781 779 779 777 770 763 763 754 751 747 747 747 745 741 738 737 748 756 759 750 745 754 753 749 757 755 762 764 772 755 738 733 731 735 739 725 725 726
788 786 785 784 783 782 781 780 778 777 771 764 761 759 754 749 748 748 745 745 744 746 753 755 753 749 753 754 754 755 751 758 759 754 760 771 732 731 731 728 723 725 725 725
785 783 782 781 780 779 778 778 777 776 776 765 760 756 753 752 749 748 745 746 746 747 753 758 757 751 757 757 752 755 756 751 757 758 753 734 731 728 725 726 726 725 726 725
783 780 779 778 777 775 775 774 775 775 773 762 756 747 742 742 743 747 748 743 743 744 746 753 754 750 759 748 741 750 747 747 748 743 729 732 729 727 726 723 723 722 723 723
780 778 776 774 773 772 772 771 772 774 774 763 749 741 741 739 739 742 744 744 743 743 744 747 744 742 751 750 749 749 743 743 739 744 733 725 721 722 722 719 720 722 722 723
777 774 772 770 769 768 767 766 767 769 773 761 750 743 737 737 738 740 741 742 743 744 743 744 744 745 744 752 752 751 741 738 742 738 726 726 724 720 720 719 720 721 722 722
773 770 767 765 764 764 763 762 758 763 767 767 750 738 735 737 737 738 739 740 741 742 740 738 738 738 741 745 740 736 734 734 734 732 731 727 723 722 721 720 720 721 722 721
768 765 761 757 755 759 760 761 757 758 765 765 749 738 734 734 735 736 738 739 740 741 736 737 734 736 737 734 733 734 736 734 733 733 728 723 724 726 724 723 722 722 722 722
763 760 755 750 744 751 755 756 758 760 763 758 746 736 736 733 733 734 737 738 739 738 735 735 733 733 733 730 731 736 737 736 731 734 734 733 728 726 724 722 722 721 722 723
758 754 752 752 751 751 752 753 754 756 760 748 741 733 732 732 730 732 736 737 735 737 732 729 731 725 725 730 735 736 739 739 736 732 731 727 725 723 722 722 721 722 722 722
753 752 752 748 749 750 751 751 753 754 752 748 738 731 728 730 729 734 732 734 734 734 729 729 729 724 736 737 738 738 738 737 736 733 729 728 726 725 722 720 718 718 718 719
754 752 750 748 747 748 746 744 743 743 738 736 732 733 727 729 729 730 732 734 739 730 729 728 723 723 735 738 740 740 738 736 735 733 731 728 726 723 719 715 713 713 714 715
757 757 753 749 745 743 741 735 733 732 729 725 723 724 727 728 728 729 732 732 737 730 733 728 718 734 738 739 740 739 737 735 733 730 727 724 720 717 714 711 709 709 711 714
754 753 750 744 740 736 725 724 724 723 725 727 727 725 726 728 728 731 732 729 724 733 726 721 728 737 739 739 739 738 736 734 732 729 726 723 718 714 712 710 709 709 712 714
753 748 740 737 730 728 726 729 730 731 730 729 727 728 728 728 728 728 725 727 730 729 731 726 731 737 740 740 740 738 736 735 733 730 727 723 719 716 713 712 712 712 713 714
751 748 738 734 732 733 732 732 731 731 730 729 730 731 730 730 728 729 728 724 730 720 718 727 734 738 740 740 740 739 738 735 733 730 726 723 721 718 716 715 714 714 714 715
751 747 741 739 736 731 733 732 731 731 730 732 733 731 730 728 726 725 721 721 727 724 732 737 739 739 740 741 742 741 740 737 734 731 729 727 724 721 719 717 715 716 716 716
748 742 741 741 739 735 734 733 731 732 732 735 731 732 726 733 726 725 720 716 723 730 740 740 739 740 742 743 743 742 741 738 736 734 731 729 725 723 721 719 718 717 717 716
Wind_Speed
23 27 28 29 30 32 18 4 3 6 11 3 2 2 8 5 5 2 3 3 6 4 4 5 4 3 2 1 3 4 1 4 4 2 2 3 3 5 4 3 4 2 3 5
21 25 27 28 29 28 10 4 3 4 4 3 4 5 3 2 4 5 6 4 5 3 4 5 4 3 4 1 4 5 4 3 4 2 1 2 3 3 4 4 3 4 4 4
19 24 25 27 28 27 7 2 4 4 3 1 2 4 5 5 4 3 2 4 6 6 6 6 3 3 4 2 3 9 5 3 4 5 3 3 3 4 6 5 3 3 5 4
19 21 24 26 28 24 5 3 2 2 4 4 7 2 2 3 5 3 7 6 6 3 3 3 3 3 3 6 4 4 3 3 2 1 2 2 4 5 8 7 5 6 3 6
18 18 22 24 26 22 6 2 3 3 4 10 7 6 8 10 5 5 5 5 5 5 4 2 5 6 3 2 4 3 3 2 2 2 3 4 4 7 9 9 5 9 9 18
16 17 19 20 22 22 6 6 3 2 5 7 4 6 7 8 3 8 7 3 5 10 6 1 5 6 4 5 5 2 3 4 2 3 3 3 4 7 9 5 5 7 7 10
15 15 15 17 18 17 11 5 4 2 4 5 5 9 7 10 5 5 5 7 4 1 3 2 5 10 9 9 7 2 4 3 2 1 3 1 4 3 5 10 7 10 9 12
13 14 14 13 15 14 15 11 4 2 3 6 6 13 7 6 6 5 3 5 2 3 3 4 3 3 3 4 6 6 4 3 2 2 2 6 1 1 4 3 2 6 7 9
15 13 14 12 12 13 14 6 9 3 3 1 5 6 3 3 3 4 4 2 3 3 3 3 2 2 2 2 2 5 6 5 3 1 1 2 3 0 1 2 1 1 4 4
14 13 12 11 11 10 12 7 6 4 2 3 4 3 3 2 1 0 3 5 5 3 2 2 2 1 3 3 5 3 2 1 3 2 2 6 5 5 2 2 2 5 3 8
14 14 13 12 11 10 9 7 8 4 2 5 4 4 3 4 2 1 3 3 3 3 3 2 1 2 2 2 3 4 5 5 3 3 1 5 3 1 3 3 2 2 5 4
16 16 13 13 13 10 8 3 5 6 3 4 8 19 24 15 7 2 1 2 1 3 3 0 1 1 1 2 1 1 2 5 4 7 5 4 3 4 4 1 3 4 3 3
16 15 15 14 14 14 11 13 9 4 2 5 4 8 10 13 23 17 2 1 0 1 3 3 2 1 3 2 2 2 3 3 2 1 2 6 7 7 7 4 6 2 3 3
17 16 15 15 15 13 12 12 11 6 2 3 5 3 6 4 7 15 14 3 1 2 1 1 1 2 4 2 2 3 4 5 4 4 8 7 5 3 5 3 1 2 3 2
18 16 16 17 16 14 13 12 15 15 4 3 4 14 6 8 9 10 9 5 2 1 1 1 2 0 2 0 0 3 3 6 4 4 4 1 7 4 4 4 3 2 2 3
18 18 18 19 17 14 3 2 13 22 16 2 3 5 2 5 7 7 4 3 2 1 2 2 2 3 3 2 3 4 1 2 2 4 4 5 8 7 3 4 3 1 2 2
19 19 20 22 22 16 4 3 5 19 17 2 3 2 2 5 3 2 2 2 1 1 2 2 3 3 4 2 4 2 3 5 4 4 7 2 4 4 7 5 3 2 1 2
19 20 18 17 4 9 11 17 6 15 5 4 2 2 2 5 2 2 2 2 1 2 2 1 1 2 3 4 2 2 4 7 4 6 5 6 9 6 6 2 2 2 3 2
21 18 8 3 1 3 2 5 7 18 6 2 2 1 2 2 2 2 1 2 2 0 2 3 2 3 4 1 1 4 4 4 9 10 9 9 5 6 5 3 4 4 4 3
12 1 1 2 3 5 5 8 2 3 3 3 3 2 2 2 1 1 2 1 2 2 2 2 3 3 3 2 3 4 5 6 5 7 9 9 9 7 7 8 6 6 5 4
5 2 1 7 6 4 2 3 4 4 3 3 3 4 2 2 2 2 2 2 2 2 2 2 3 2 1 2 4 4 5 6 6 6 8 9 10 9 10 10 7 6 7 6
8 10 8 5 3 3 3 3 3 4 3 3 3 3 3 2 1 2 2 2 2 4 2 2 2 1 0 3 4 6 6 7 7 8 9 9 9 10 8 8 5 6 8 10
5 3 2 2 2 3 3 2 2 1 1 1 1 1 1 2 1 1 1 3 3 2 2 2 1 2 1 3 4 5 5 7 7 8 11 11 10 9 6 3 2 5 8 10
2 2 4 3 3 3 1 1 1 1 1 1 1 1 1 1 1 1 2 1 1 1 1 4 3 3 2 3 3 4 7 7 7 8 9 9 10 8 8 5 1 5 7 9
2 2 4 2 2 1 0 0 0 1 1 1 1 1 1 0 0 1 1 2 3 4 3 2 3 3 3 4 5 6 7 7 6 8 7 9 12 8 6 6 3 1 5 7
2 3 3 2 2 1 1 1 1 1 1 1 1 1 1 2 1 2 4 2 4 2 2 2 3 3 3 3 4 4 7 8 9 10 11 10 9 8 6 6 5 3 1 5
2 3 2 2 3 2 1 2 0 1 1 1 1 2 4 1 2 2 3 3 1 2 1 1 3 4 3 2 3 4 7 8 9 10 11 11 13 11 11 6 10 5 3 3
Wind_Direction
351 349 351 351 349 353 358 354 3 330 346 40 350 315 324 317 309 291 249 260 62 65 113 60 79 109 88 183 125 58 32 103 124 153 314 168 136 164 142 128 227 74 132 276
353 351 353 353 352 358 353 339 292 330 11 43 342 310 320 261 320 334 3 54 69 62 67 88 66 72 344 150 92 148 179 95 116 31 18 18 203 167 121 107 92 202 135 263
353 353 354 354 353 356 11 358 342 319 30 200 270 337 345 331 300 305 331 39 64 64 38 31 116 91 17 19 77 77 95 104 145 178 192 142 188 163 164 135 124 183 228 278
349 354 357 357 357 0 27 6 350 32 321 324 330 326 342 316 43 359 13 29 42 98 100 68 79 79 69 34 60 49 79 93 64 112 130 160 180 175 179 190 175 186 232 223
347 353 358 1 4 9 54 14 349 327 287 296 315 353 17 35 18 33 3 74 31 42 91 28 173 127 99 170 28 65 16 116 73 58 24 216 226 212 197 215 223 254 271 286
345 351 357 1 9 20 19 335 299 283 294 326 338 354 356 21 357 32 58 7 71 47 344 342 97 83 87 130 127 113 91 120 78 295 313 318 292 217 197 186 206 202 215 245
342 343 351 0 8 11 10 328 301 318 306 353 355 323 334 22 36 91 8 28 65 26 283 236 61 62 70 65 48 106 131 99 96 247 355 13 245 177 180 198 238 215 256 270
333 339 344 350 358 2 0 351 340 321 303 332 323 340 335 6 18 42 47 13 318 301 40 64 73 10 52 50 32 23 70 100 84 99 246 291 360 126 142 173 338 186 211 255
334 329 340 338 346 352 354 11 1 320 317 285 318 314 320 342 358 5 360 344 318 64 71 67 107 176 107 145 84 27 60 77 109 59 73 248 239 183 293 214 351 322 189 302
321 324 327 329 328 342 343 324 344 298 281 288 342 299 318 331 16 358 313 342 13 38 59 79 122 181 150 156 170 159 112 122 178 207 246 285 252 293 198 93 228 309 326 304
318 316 318 318 318 317 327 313 325 333 299 288 266 288 304 338 32 33 302 18 358 38 63 102 228 126 207 97 174 174 183 160 190 184 197 288 190 258 163 194 288 259 291 282
313 317 310 314 311 305 299 288 329 309 242 277 285 266 262 250 244 339 327 203 193 189 98 105 129 84 78 159 239 299 226 181 181 178 212 239 232 234 258 213 262 282 272 279
309 309 309 308 309 304 277 270 285 289 285 274 244 246 272 236 232 231 245 241 170 169 166 157 153 119 139 211 243 210 245 173 211 319 267 240 260 264 255 257 246 238 244 278
307 305 305 304 307 299 292 250 248 217 283 275 276 318 275 227 196 190 206 278 36 97 130 131 190 186 174 216 262 205 213 155 197 256 288 292 244 249 270 267 219 274 283 249
303 304 305 300 300 293 293 255 238 225 206 304 292 307 270 221 195 196 205 207 186 172 193 183 226 104 143 88 101 254 197 200 176 232 253 251 274 282 308 302 290 287 270 281
305 303 303 299 296 293 179 279 233 216 207 267 287 316 259 181 188 188 188 195 201 233 222 208 206 194 133 211 221 225 127 5 263 269 333 255 276 284 329 302 341 347 289 288
307 308 307 295 279 262 174 191 5 181 173 242 259 248 230 183 155 162 136 140 202 234 235 227 191 182 190 225 231 151 342 331 324 18 345 344 30 324 319 324 9 19 23 357
310 309 306 350 134 187 216 235 241 173 191 250 265 263 337 181 160 179 169 153 172 212 229 208 226 165 202 238 168 35 6 312 232 356 354 257 276 289 284 303 304 304 291 299
311 307 278 290 81 150 214 169 225 196 237 282 234 232 233 167 190 123 157 203 216 184 234 227 182 209 222 100 345 344 356 334 305 317 311 291 305 299 295 271 279 257 253 220
322 298 345 249 213 144 205 160 154 172 213 223 252 293 239 170 145 179 188 166 202 241 226 136 211 229 118 77 358 320 319 301 308 322 325 331 320 314 299 275 258 239 233 200
350 343 276 319 167 197 216 196 190 185 215 201 221 212 199 172 179 200 193 192 174 239 175 228 208 197 151 24 336 330 318 316 307 286 280 281 269 275 283 283 254 232 216 198
307 296 293 272 216 211 232 194 176 196 222 184 213 172 191 157 145 168 178 205 160 248 122 226 232 148 57 347 327 324 325 327 319 312 306 302 290 272 268 272 254 202 202 184
290 207 254 215 200 237 245 209 165 207 283 5 66 119 113 136 127 102 183 213 218 121 209 232 169 131 333 345 335 330 326 341 335 333 331 325 328 346 344 341 37 154 153 170
260 255 270 218 195 246 277 206 235 317 317 351 32 98 147 129 173 160 236 202 174 253 229 225 159 161 60 23 354 341 347 349 341 338 336 347 351 348 8 20 101 154 158 168
267 255 254 253 346 299 291 274 289 315 309 37 45 47 92 59 203 205 349 228 258 220 226 137 126 118 85 43 17 6 356 346 344 348 351 350 348 348 359 13 19 178 162 175
253 250 271 291 311 306 287 240 175 344 10 16 29 114 104 242 205 213 226 220 230 236 154 155 129 112 74 33 12 360 350 347 350 352 351 351 351 348 349 6 14 1 207 197
240 250 245 236 267 288 329 309 336 358 113 204 124 162 224 67 212 247 209 224 281 150 175 167 130 125 97 35 360 347 347 348 350 352 355 353 3 25 28 15 358 339 300 249